Burlington, IA

8:47 PM CST on December 09, 2016 (GMT -0600)
Burlington Regional

Weather History for KBRL - January, 2015

Change the Weather History Date:

Friday, January 23, 2015

  Actual Average Record
Temperature  
Mean Temperature 33 °F 26 °F  
Max Temperature 37 °F 35 °F 67 °F (1909)
Min Temperature 28 °F 17 °F -20 °F (1936)
Degree Days  
Heating Degree Days 32 39  
Month to date heating degree days 972 897  
Since 1 July heating degree days 3343 3083  
Cooling Degree Days 0 0  
Month to date cooling degree days 0 0  
Year to date cooling degree days 0 0  
Moisture  
Dew Point 25 °F    
Average Humidity 78    
Maximum Humidity 85    
Minimum Humidity 70    
Precipitation  
Precipitation 0.00 in 0.04 in 0.52 in (1953)
Month to date precipitation 0.76 0.93  
Year to date precipitation 0.76 0.93  
Sea Level Pressure  
Sea Level Pressure 30.14 in    
Wind  
Wind Speed 8 mph (SW)    
Max Wind Speed 15 mph    
Max Gust Speed 18 mph    
Visibility 10 miles    
Events      
T = Trace of Precipitation, MM = Missing Value Source: NWS Daily Summary

Daily Weather History Graph

Daily Weather History Graph

Search for Another Location

Airport or City:

Trip Planner

Search our weather history database for the weather conditions in past years. The results will help you decide how hot, cold, wet, or windy it might be!

Date:

Astronomy

Jan. 23, 2015 Rise Set
Actual Time 7:22 AM CST 5:10 PM CST
Civil Twilight 6:52 AM CST 5:40 PM CST
Nautical Twilight 6:19 AM CST 6:13 PM CST
Astronomical Twilight 5:46 AM CST 6:46 PM CST
Moon 9:12 AM CST (1/23) 9:22 PM CST (1/23)
Length of Visible Light 10h 47m
Length of Day
9h 48m
Waxing Crescent, 14% of the Moon is Illuminated
Jan 23
Waxing Crescent
Jan 26
First Quarter
Feb 3
Full
Feb 11
Last Quarter
Feb 18
New

Hourly Weather History & Observations

Time (CST) Temp. Windchill Dew Point Humidity Pressure Visibility Wind Dir Wind Speed Gust Speed Precip Events Conditions
12:53 AM 30.0 °F 25.2 °F 24.1 °F 79% 30.38 in 9.0 mi SW 4.6 mph - N/A   Overcast
1:53 AM 30.0 °F 26.5 °F 25.0 °F 82% 30.37 in 9.0 mi SW 3.5 mph - N/A   Overcast
2:53 AM 30.2 °F - 24.8 °F 80% 30.33 in 10.0 mi Calm Calm - N/A   Overcast
3:53 AM 30.0 °F 26.5 °F 25.0 °F 82% 30.32 in 10.0 mi SW 3.5 mph - N/A   Overcast
4:53 AM 30.0 °F 24.1 °F 24.1 °F 79% 30.31 in 10.0 mi WSW 5.8 mph - N/A   Overcast
5:53 AM 28.9 °F 21.1 °F 23.0 °F 78% 30.30 in 10.0 mi West 8.1 mph - N/A   Overcast
6:53 AM 28.9 °F 22.8 °F 23.0 °F 78% 30.29 in 10.0 mi SW 5.8 mph - N/A   Overcast
7:53 AM 28.0 °F 22.8 °F 23.0 °F 81% 30.27 in 10.0 mi WSW 4.6 mph - N/A   Overcast
8:53 AM 28.9 °F 22.8 °F 23.0 °F 78% 30.26 in 10.0 mi SW 5.8 mph - N/A   Overcast
9:53 AM 28.9 °F 20.4 °F 24.1 °F 82% 30.22 in 10.0 mi WSW 9.2 mph - N/A   Mostly Cloudy
10:06 AM 30.0 °F 22.4 °F 24.1 °F 79% 30.19 in 10.0 mi SW 8.1 mph - N/A   Scattered Clouds
10:36 AM 30.9 °F 22.2 °F 24.1 °F 76% 30.18 in 10.0 mi SSW 10.4 mph - N/A   Mostly Cloudy
10:53 AM 30.9 °F 22.2 °F 25.0 °F 79% 30.21 in 10.0 mi SW 10.4 mph - N/A   Mostly Cloudy
11:53 AM 32.0 °F 22.1 °F 25.0 °F 75% 30.16 in 10.0 mi SSW 13.8 mph - N/A   Mostly Cloudy
12:35 PM 34.0 °F 25.5 °F 26.1 °F 73% 30.11 in 10.0 mi SSW 11.5 mph - N/A   Scattered Clouds
12:53 PM 34.0 °F 26.0 °F 27.0 °F 75% 30.12 in 10.0 mi SSW 10.4 mph - N/A   Partly Cloudy
1:53 PM 35.1 °F 26.4 °F 27.0 °F 72% 30.09 in 10.0 mi SW 12.7 mph - N/A   Clear
2:53 PM 36.0 °F 29.0 °F 27.0 °F 70% 30.06 in 10.0 mi SSW 9.2 mph - N/A   Clear
3:53 PM 35.1 °F 26.9 °F 26.1 °F 70% 30.02 in 10.0 mi SSW 11.5 mph - N/A   Clear
4:53 PM 34.0 °F 28.0 °F 27.0 °F 75% 30.01 in 10.0 mi SSW 6.9 mph - N/A   Clear
5:53 PM 34.0 °F 28.0 °F 27.0 °F 75% 30.00 in 10.0 mi SSW 6.9 mph - N/A   Clear
6:53 PM 33.1 °F 26.1 °F 27.0 °F 78% 29.99 in 10.0 mi SSW 8.1 mph - N/A   Clear
7:53 PM 32.0 °F 24.8 °F 27.0 °F 82% 29.97 in 10.0 mi SW 8.1 mph - N/A   Mostly Cloudy
8:53 PM 32.0 °F 24.2 °F 27.0 °F 82% 29.94 in 10.0 mi SSW 9.2 mph - N/A   Mostly Cloudy
9:53 PM 30.9 °F 22.8 °F 27.0 °F 85% 29.91 in 10.0 mi SW 9.2 mph - N/A   Partly Cloudy
10:53 PM 30.9 °F 24.3 °F 26.1 °F 82% 29.89 in 10.0 mi SW 6.9 mph - N/A   Clear
11:53 PM 30.9 °F 23.5 °F 26.1 °F 82% 29.88 in 10.0 mi WSW 8.1 mph - N/A   Clear